Birmingham, AL

8:51 AM CST on February 06, 2016 (GMT -0600)
Birmingham International

Weather History for KBHM - April, 2013

Change the Weather History Date:

Sunday, April 21, 2013

  Actual Average Record
Temperature  
Mean Temperature 58 °F 64 °F  
Max Temperature 71 °F 76 °F 92 °F (1987)
Min Temperature 45 °F 52 °F 31 °F (1953)
Degree Days  
Heating Degree Days 7 4  
Month to date heating degree days 110 116  
Since 1 July heating degree days 2575 2628  
Cooling Degree Days 0 2  
Month to date cooling degree days 59 35  
Year to date cooling degree days 66 57  
Growing Degree Days 8 (Base 50)    
Moisture  
Dew Point 36 °F    
Average Humidity 49    
Maximum Humidity 71    
Minimum Humidity 27    
Precipitation  
Precipitation 0.00 in 0.14 in 1.70 in (1928)
Month to date precipitation 3.69 3.10  
Year to date precipitation 23.47 17.70  
Snow  
Snow 0.00 in 0.00 in - ()
Month to date snowfall 0.0 0.2  
Since 1 July snowfall 2.1 1.6  
Snow Depth 0.00 in    
Sea Level Pressure  
Sea Level Pressure 30.26 in    
Wind  
Wind Speed 6 mph (ENE)    
Max Wind Speed 13 mph    
Max Gust Speed 20 mph    
Visibility 10 miles    
Events      
T = Trace of Precipitation, MM = Missing Value Source: NWS Daily Summary

Daily Weather History Graph

Daily Weather History Graph

Search for Another Location

Airport or City:

Trip Planner

Search our weather history database for the weather conditions in past years. The results will help you decide how hot, cold, wet, or windy it might be!

Date:

Astronomy

Apr. 21, 2013 Rise Set
Actual Time 6:09 AM CDT 7:22 PM CDT
Civil Twilight 5:43 AM CDT 7:48 PM CDT
Nautical Twilight 5:12 AM CDT 8:19 PM CDT
Astronomical Twilight 4:40 AM CDT 8:51 PM CDT
Moon 3:19 PM CDT (4/21) 3:18 AM CDT (4/21)
Length of Visible Light 14h 05m
Length of Day
13h 13m
Waxing Gibbous, 80% of the Moon is Illuminated
Apr 21
Waxing Gibbous
Apr 25
Full
May 2
Last Quarter
May 9
New
May 17
First Quarter

Hourly Weather History & Observations

Time (CDT) Temp. Dew Point Humidity Pressure Visibility Wind Dir Wind Speed Gust Speed Precip Events Conditions
12:53 AM 50.0 °F 34.0 °F 54% 30.27 in 10.0 mi NE 3.5 mph - N/A   Clear
1:53 AM 46.9 °F 37.9 °F 71% 30.27 in 10.0 mi NE 3.5 mph - N/A   Clear
2:53 AM 46.0 °F 37.0 °F 71% 30.27 in 10.0 mi Calm Calm - N/A   Clear
3:53 AM 46.0 °F 37.0 °F 71% 30.28 in 10.0 mi Calm Calm - N/A   Clear
4:53 AM 46.0 °F 33.1 °F 61% 30.27 in 10.0 mi Calm Calm - N/A   Clear
5:53 AM 50.0 °F 28.9 °F 44% 30.27 in 10.0 mi ENE 8.1 mph - N/A   Clear
6:53 AM 50.0 °F 30.0 °F 46% 30.29 in 10.0 mi ENE 8.1 mph - N/A   Clear
7:53 AM 51.1 °F 32.0 °F 48% 30.31 in 10.0 mi ENE 8.1 mph - N/A   Clear
8:53 AM 54.0 °F 34.0 °F 47% 30.32 in 10.0 mi NE 4.6 mph - N/A   Clear
9:53 AM 57.9 °F 35.1 °F 42% 30.33 in 10.0 mi ESE 5.8 mph - N/A   Clear
10:53 AM 63.0 °F 36.0 °F 37% 30.32 in 10.0 mi East 8.1 mph - N/A   Clear
11:53 AM 66.0 °F 36.0 °F 33% 30.30 in 10.0 mi East 11.5 mph - N/A   Clear
12:53 PM 66.9 °F 37.0 °F 33% 30.28 in 10.0 mi Variable 5.8 mph 17.3 mph N/A   Clear
1:53 PM 69.1 °F 37.0 °F 31% 30.25 in 10.0 mi Variable 6.9 mph - N/A   Clear
2:53 PM 70.0 °F 35.1 °F 28% 30.22 in 10.0 mi Variable 4.6 mph - N/A   Clear
3:53 PM 70.0 °F 37.0 °F 30% 30.21 in 10.0 mi SE 9.2 mph - N/A   Clear
4:53 PM 71.1 °F 35.1 °F 27% 30.20 in 10.0 mi ENE 5.8 mph - N/A   Clear
5:53 PM 70.0 °F 37.0 °F 30% 30.20 in 10.0 mi ENE 9.2 mph - N/A   Clear
6:53 PM 69.1 °F 37.0 °F 31% 30.21 in 10.0 mi East 5.8 mph - N/A   Clear
7:53 PM 64.9 °F 39.0 °F 39% 30.22 in 10.0 mi ENE 4.6 mph - N/A   Clear
8:53 PM 64.0 °F 39.9 °F 41% 30.24 in 10.0 mi East 4.6 mph - N/A   Clear
9:53 PM 63.0 °F 39.9 °F 43% 30.24 in 10.0 mi East 5.8 mph - N/A   Clear
10:53 PM 62.1 °F 39.9 °F 44% 30.24 in 10.0 mi East 4.6 mph - N/A   Clear
11:53 PM 61.0 °F 39.0 °F 44% 30.24 in 10.0 mi East 5.8 mph - N/A   Clear